Weather History for Atlanta Fulton, GA

Change the Weather History Date:

Saturday, June 1, 2013

  Actual Average Record
Temperature  
Mean Temperature 76 °F 74 °F  
Max Temperature 86 °F 84 °F 98 °F (2011)
Min Temperature 66 °F 63 °F 57 °F (2003)
Cooling Degree Days 11 9  
Month to date cooling degree days 11 9  
Year to date cooling degree days 174 209  
Since 1 June cooling degree days 11 9  
Growing Degree Days 25 (Base 50)    
Moisture  
Dew Point 65 °F    
Average Humidity 72    
Maximum Humidity 93    
Minimum Humidity 51    
Precipitation  
Precipitation T in 0.12 in 1.77 in (1979)
Month to date precipitation T 0.12  
Year to date precipitation 10.25 21.61  
Sea Level Pressure  
Sea Level Pressure 30.05 in    
Wind  
Wind Speed 6 mph (SSE)    
Max Wind Speed 14 mph    
Max Gust Speed 18 mph    
Visibility 10 miles    
Events      
T = Trace of Precipitation, MM = Missing Value Source: NWS Daily Summary

Daily Weather History Graph

Daily Weather History Graph

Search for Another Location

Airport:

Trip Planner

Search our weather history database for the weather conditions in past years. The results will help you decide how hot, cold, wet, or windy it might be!

Date:

Astronomy

Jun. 01, 2013 Rise Set
Actual Time 6:28 AM EDT 8:43 PM EDT
Civil Twilight 5:59 AM EDT 9:12 PM EDT
Nautical Twilight 5:24 AM EDT 9:47 PM EDT
Astronomical Twilight 4:46 AM EDT 10:25 PM EDT
Moon 2:05 AM EDT (6/1) 2:28 PM EDT (6/1)
Length of Visible Light 15h 12m
Length of Day
14h 15m
Last Quarter, 41% of the Moon is Illuminated
Jun 1
Last Quarter
Jun 8
New
Jun 16
First Quarter
Jun 23
Full
Jun 30
Last Quarter

Hourly Weather History & Observations

Time (EDT) Temp. Heat Index Dew Point Humidity Pressure Visibility Wind Dir Wind Speed Gust Speed Precip Events Conditions
12:53 AM 77.0 °F - 63.0 °F 62% 30.05 in 10.0 mi SSE 5.8 mph - N/A   Clear
1:53 AM 75.9 °F - 64.0 °F 67% 30.07 in 10.0 mi South 8.1 mph - N/A   Clear
2:53 AM 75.0 °F - 64.0 °F 69% 30.08 in 10.0 mi SE 8.1 mph - N/A   Clear
3:53 AM 73.0 °F - 64.0 °F 73% 30.08 in 10.0 mi Calm Calm - N/A   Clear
4:53 AM 72.0 °F - 64.0 °F 76% 30.08 in 10.0 mi SSE 3.5 mph - N/A   Clear
5:53 AM 68.0 °F - 64.0 °F 87% 30.08 in 10.0 mi Calm Calm - N/A   Clear
6:53 AM 66.9 °F - 64.0 °F 90% 30.08 in 10.0 mi Calm Calm - N/A   Clear
7:53 AM 72.0 °F - 66.0 °F 81% 30.09 in 10.0 mi SSE 8.1 mph - N/A   Partly Cloudy
8:53 AM 73.9 °F - 66.0 °F 76% 30.08 in 10.0 mi South 8.1 mph 17.3 mph N/A   Partly Cloudy
9:53 AM 75.9 °F - 66.0 °F 71% 30.08 in 10.0 mi South 6.9 mph - N/A   Partly Cloudy
10:53 AM 79.0 °F - 66.0 °F 64% 30.07 in 10.0 mi SSE 9.2 mph - N/A   Partly Cloudy
11:26 AM 80.6 °F 82.7 °F 66.2 °F 61% 30.09 in 10.0 mi South 10.4 mph - N/A   Mostly Cloudy
11:53 AM 80.1 °F 82.3 °F 66.9 °F 64% 30.08 in 10.0 mi SSE 5.8 mph - N/A   Mostly Cloudy
12:21 PM 80.6 °F 82.7 °F 66.2 °F 61% 30.10 in 10.0 mi SSE 8.1 mph - N/A   Mostly Cloudy
12:53 PM 80.1 °F 82.1 °F 66.0 °F 62% 30.06 in 10.0 mi SE 8.1 mph - N/A   Overcast
1:53 PM 82.0 °F 84.1 °F 66.0 °F 58% 30.06 in 10.0 mi South 13.8 mph - N/A   Scattered Clouds
2:53 PM 82.9 °F 85.4 °F 66.9 °F 58% 30.05 in 10.0 mi South 8.1 mph - N/A   Mostly Cloudy
3:53 PM 84.9 °F 87.1 °F 66.0 °F 53% 30.02 in 10.0 mi SSW 9.2 mph 16.1 mph N/A   Clear
4:53 PM 84.9 °F 86.6 °F 64.9 °F 51% 30.00 in 10.0 mi SSE 8.1 mph - N/A   Mostly Cloudy
5:53 PM 84.0 °F 86.3 °F 66.0 °F 55% 29.99 in 10.0 mi SSE 8.1 mph - N/A   Mostly Cloudy
6:53 PM 82.0 °F 83.8 °F 64.9 °F 56% 29.99 in 10.0 mi SSW 6.9 mph - N/A   Clear
7:53 PM 81.0 °F 83.0 °F 66.0 °F 60% 29.99 in 10.0 mi South 4.6 mph - N/A   Clear
8:53 PM 80.1 °F 82.1 °F 66.0 °F 62% 29.99 in 10.0 mi Calm Calm - N/A   Mostly Cloudy
9:53 PM 79.0 °F - 66.0 °F 64% 30.03 in 10.0 mi Calm Calm - N/A   Scattered Clouds
10:53 PM 77.0 °F - 66.9 °F 71% 30.01 in 10.0 mi Calm Calm - 0.00 in   Scattered Clouds
11:53 PM 78.1 °F - 66.0 °F 66% 29.99 in 10.0 mi SSE 5.8 mph - N/A   Scattered Clouds